Temp
12 12 11 12 11 10 10 10 10 10 10 9 10 10 11 11 11 10 10 10 10 10 10 10 10 10 9 9 8 7 6 7 7 7 8 8 8 9 9 10 10 11 11
11 11 11 11 11 11 11 11 10 10 10 10 9 9 9 10 11 10 9 9 9 9 9 9 9 9 9 8 7 6 6 6 6 6 6 7 8 9 9 9 9 9 9
10 11 11 11 10 9 9 9 9 9 9 10 10 9 9 9 10 10 9 9 9 8 8 8 8 9 9 8 6 6 5 5 6 6 6 6 8 8 8 9 8 9 9
11 11 10 10 9 10 10 9 9 9 9 9 9 9 9 9 9 9 9 9 8 8 7 7 8 8 8 8 6 5 5 5 6 6 6 6 6 6 7 7 8 8 8
11 11 10 11 10 10 10 10 10 10 10 9 9 9 9 8 9 9 8 8 8 7 7 6 7 8 7 7 6 5 5 5 5 5 5 6 6 6 6 6 7 7 7
11 11 11 11 11 10 11 11 10 10 9 9 9 9 8 8 9 8 8 8 8 7 6 5 6 7 7 7 5 4 4 4 4 4 4 5 5 5 5 5 6 6 7
11 11 11 10 10 10 10 10 10 10 9 9 8 8 8 8 8 8 8 8 8 7 7 6 6 5 4 4 3 3 3 3 4 4 4 4 5 5 4 4 5 5 6
10 10 10 10 10 10 10 9 9 9 8 8 8 8 8 8 8 8 8 8 7 7 6 6 6 4 3 2 3 3 3 3 3 4 4 4 4 4 4 4 4 4 4
10 10 10 10 10 10 9 9 9 8 8 8 8 7 7 7 7 7 7 8 7 7 7 7 6 6 3 2 2 3 3 3 3 3 3 4 4 4 4 4 4 4 4
10 10 10 10 9 9 9 9 9 9 8 8 7 7 7 7 7 7 7 7 7 7 6 6 5 5 4 1 2 2 2 3 3 3 3 4 4 4 3 3 4 4 4
10 10 10 10 9 9 9 9 9 9 9 9 8 8 7 7 6 6 6 6 6 6 6 6 6 6 6 5 4 3 3 2 1 2 2 2 3 3 4 3 3 3 4
10 10 9 9 9 9 9 9 9 9 9 9 8 8 7 7 7 6 6 6 6 6 5 5 4 4 4 4 4 4 3 2 2 2 1 1 2 2 3 3 3 3 3
10 9 9 9 9 8 8 8 8 8 8 8 8 8 7 7 6 6 6 6 6 6 5 5 5 4 4 4 3 3 3 3 4 3 2 2 0 0 1 0 1 2 2
9 9 9 8 8 7 7 7 7 7 7 7 7 8 7 6 6 6 6 5 5 5 5 5 5 5 4 4 4 4 3 2 3 3 3 2 2 -1 -1 0 1 1 1
8 8 8 7 6 6 6 6 6 6 6 6 7 7 7 6 6 6 6 5 5 5 5 5 5 5 5 4 4 4 4 3 3 2 3 2 -1 -1 0 1 1 1 1
8 8 7 6 5 5 5 5 5 6 6 6 6 6 6 6 6 6 6 5 5 5 5 5 4 5 4 4 4 4 4 3 3 2 2 -0 -0 -1 0 1 0 0 1
7 6 6 5 5 5 5 5 5 6 6 6 6 5 5 5 6 6 6 5 5 4 4 4 4 4 4 3 3 3 3 2 2 2 1 -1 -2 -1 -0 0 1 1 1
7 6 6 5 5 5 5 6 6 6 6 6 6 6 5 5 5 5 5 5 4 4 4 3 3 3 3 3 3 3 3 3 2 1 1 1 0 -2 -1 -0 0 0 0
6 5 6 6 6 5 6 6 6 6 6 6 6 6 6 6 5 5 5 4 4 4 3 3 3 4 4 3 3 3 3 3 2 2 1 1 1 -1 -2 -1 -0 1 1
6 5 6 6 6 6 5 6 6 6 6 6 6 6 5 5 5 5 5 5 4 4 4 4 3 3 3 2 2 2 2 2 2 2 2 1 0 -0 -2 -1 -0 -0 1
5 5 6 5 5 5 5 5 5 5 5 5 6 6 5 5 5 5 4 4 4 4 4 4 4 4 3 3 3 2 2 2 2 2 2 1 1 0 -0 -1 -1 -1 -1
5 5 5 5 5 4 4 4 4 5 5 5 5 5 5 5 5 4 4 4 4 4 4 3 4 4 3 3 3 2 2 2 2 2 2 1 1 1 -1 -1 -1 -2 -1
5 4 5 6 5 4 4 4 4 4 5 5 5 4 4 4 4 4 4 4 3 3 3 3 3 4 4 3 3 2 2 2 1 1 1 1 1 0 -0 -2 -2 -3 -2
4 4 5 5 5 5 4 3 3 3 3 3 3 3 3 3 3 3 2 2 3 2 2 2 3 3 3 3 2 2 2 1 1 1 -0 -0 -1 -1 -1 -1 -2 -4 -4
4 4 4 4 4 4 4 3 2 1 1 2 2 2 2 2 2 2 2 2 2 2 1 1 1 1 2 3 2 1 0 0 -0 -1 -1 -1 -1 -2 -1 -2 -3 -4 -4
4 4 3 3 3 4 4 3 2 1 1 1 1 1 1 1 1 1 1 1 1 1 1 1 0 1 1 1 1 1 -0 -1 -1 -2 -1 -1 -2 -2 -2 -3 -3 -4 -4
Height
1523 1518 1514 1512 1511 1514 1515 1515 1514 1513 1512 1511 1509 1507 1506 1504 1502 1500 1498 1496 1494 1491 1489 1487 1485 1483 1481 1480 1479 1478 1478 1477 1477 1475 1473 1471 1471 1471 1472 1473 1474 1475 1476
1524 1520 1518 1517 1516 1516 1513 1511 1510 1510 1508 1508 1507 1505 1502 1501 1498 1496 1495 1492 1490 1487 1485 1482 1480 1478 1476 1475 1474 1474 1473 1474 1475 1473 1472 1468 1467 1467 1467 1468 1468 1468 1469
1526 1523 1521 1519 1515 1514 1513 1509 1508 1507 1506 1505 1504 1503 1501 1499 1495 1493 1492 1490 1487 1484 1481 1478 1476 1474 1472 1470 1469 1470 1470 1470 1471 1472 1473 1469 1467 1465 1465 1464 1464 1464 1463
1526 1524 1523 1521 1518 1514 1511 1510 1507 1505 1504 1502 1501 1498 1498 1496 1491 1488 1487 1485 1483 1480 1477 1475 1473 1471 1469 1467 1466 1466 1467 1469 1468 1469 1470 1469 1468 1466 1461 1460 1460 1460 1459
1525 1524 1523 1520 1517 1514 1511 1508 1506 1504 1502 1499 1498 1496 1495 1492 1488 1486 1484 1482 1480 1477 1475 1472 1470 1468 1467 1465 1465 1465 1466 1467 1467 1466 1465 1464 1464 1463 1462 1456 1455 1455 1455
1526 1523 1520 1518 1515 1512 1510 1507 1504 1502 1499 1497 1495 1494 1492 1488 1486 1484 1481 1479 1477 1474 1472 1469 1466 1465 1463 1463 1463 1463 1464 1463 1463 1462 1462 1461 1461 1458 1458 1456 1452 1450 1446
1524 1521 1518 1516 1513 1510 1506 1503 1501 1498 1496 1494 1492 1490 1488 1485 1483 1481 1478 1475 1473 1471 1469 1466 1463 1462 1461 1460 1459 1459 1459 1459 1458 1458 1457 1457 1456 1455 1454 1453 1450 1447 1442
1522 1518 1515 1512 1509 1506 1503 1500 1497 1494 1492 1490 1488 1486 1484 1482 1480 1478 1475 1472 1470 1467 1465 1463 1460 1458 1457 1457 1456 1455 1454 1454 1453 1453 1452 1452 1451 1451 1450 1449 1447 1443 1439
1519 1516 1513 1510 1506 1501 1498 1495 1493 1491 1489 1487 1484 1482 1481 1478 1476 1474 1471 1469 1466 1464 1462 1460 1457 1454 1453 1453 1452 1451 1449 1448 1448 1447 1447 1446 1446 1445 1445 1444 1443 1442 1437
1517 1514 1511 1507 1504 1499 1495 1492 1490 1487 1484 1483 1481 1479 1477 1475 1473 1471 1468 1466 1463 1461 1459 1457 1454 1452 1450 1449 1448 1447 1446 1444 1443 1442 1441 1441 1440 1440 1439 1438 1437 1437 1434
1515 1511 1509 1506 1502 1498 1494 1489 1486 1483 1481 1479 1477 1475 1473 1471 1469 1467 1465 1462 1460 1457 1455 1453 1451 1449 1447 1445 1444 1443 1441 1440 1439 1438 1436 1435 1435 1433 1433 1432 1431 1430 1429
1512 1509 1506 1503 1500 1495 1491 1487 1483 1480 1478 1475 1473 1470 1469 1467 1465 1463 1461 1459 1456 1454 1452 1450 1448 1446 1444 1442 1440 1438 1437 1435 1434 1432 1430 1429 1428 1426 1425 1424 1422 1422 1422
1509 1506 1503 1500 1496 1491 1487 1484 1480 1476 1474 1471 1469 1467 1465 1463 1461 1459 1457 1455 1453 1451 1449 1446 1444 1442 1440 1438 1436 1434 1432 1430 1428 1427 1424 1422 1421 1418 1417 1417 1415 1414 1413
1507 1503 1500 1496 1491 1487 1482 1479 1476 1473 1470 1467 1465 1462 1461 1459 1457 1455 1453 1451 1449 1447 1445 1443 1441 1438 1436 1434 1432 1430 1428 1426 1424 1421 1419 1416 1414 1413 1412 1411 1409 1408 1407
1503 1500 1495 1490 1486 1481 1477 1474 1470 1468 1465 1462 1460 1458 1456 1454 1452 1451 1449 1447 1445 1443 1441 1439 1437 1435 1432 1430 1428 1426 1424 1422 1419 1417 1414 1411 1410 1409 1408 1406 1403 1402 1400
1500 1496 1491 1486 1482 1477 1472 1468 1465 1462 1459 1456 1454 1453 1451 1449 1447 1445 1443 1441 1440 1438 1436 1434 1432 1430 1428 1426 1423 1421 1418 1417 1414 1411 1409 1406 1404 1403 1401 1400 1399 1396 1394
1496 1492 1487 1482 1478 1473 1469 1464 1461 1458 1455 1452 1450 1448 1445 1443 1442 1440 1438 1436 1434 1432 1431 1429 1427 1424 1423 1421 1419 1416 1414 1412 1410 1406 1404 1401 1400 1397 1395 1393 1391 1390 1388
1492 1488 1484 1479 1475 1470 1466 1462 1459 1455 1452 1449 1446 1444 1441 1438 1437 1435 1433 1431 1429 1427 1425 1423 1421 1419 1417 1416 1414 1412 1409 1407 1405 1402 1399 1396 1393 1392 1390 1386 1384 1383 1382
1490 1486 1482 1477 1472 1468 1464 1460 1456 1452 1449 1446 1443 1440 1437 1435 1433 1430 1428 1426 1422 1420 1419 1417 1416 1414 1413 1411 1408 1406 1403 1401 1399 1397 1394 1391 1389 1387 1384 1381 1379 1376 1375
1486 1483 1479 1476 1472 1467 1463 1459 1454 1450 1446 1443 1440 1437 1434 1430 1427 1425 1422 1419 1417 1414 1412 1410 1408 1407 1405 1404 1402 1399 1397 1395 1394 1392 1389 1386 1384 1382 1379 1376 1373 1370 1368
1481 1479 1475 1471 1468 1464 1459 1455 1452 1447 1443 1439 1436 1433 1429 1426 1422 1418 1416 1413 1410 1406 1404 1402 1401 1400 1399 1397 1395 1393 1391 1390 1388 1386 1384 1382 1379 1377 1374 1371 1368 1366 1363
1478 1475 1470 1467 1464 1460 1457 1452 1448 1444 1440 1436 1432 1428 1424 1421 1417 1413 1410 1407 1403 1400 1397 1395 1393 1392 1391 1390 1388 1387 1385 1383 1381 1380 1378 1376 1374 1371 1369 1366 1364 1361 1359
1474 1471 1467 1463 1459 1456 1452 1448 1444 1439 1434 1429 1426 1423 1419 1415 1411 1407 1403 1399 1397 1393 1390 1387 1384 1383 1382 1381 1380 1379 1378 1377 1375 1374 1372 1370 1368 1366 1363 1362 1359 1357 1354
1468 1465 1463 1459 1455 1451 1446 1443 1439 1435 1431 1425 1420 1416 1411 1407 1404 1401 1398 1393 1390 1385 1382 1380 1376 1374 1373 1372 1372 1370 1369 1368 1368 1367 1365 1363 1362 1360 1358 1356 1355 1353 1350
1462 1461 1458 1454 1450 1446 1442 1438 1434 1429 1424 1420 1415 1410 1405 1401 1396 1393 1389 1386 1383 1380 1376 1372 1369 1366 1362 1363 1362 1360 1360 1360 1360 1360 1358 1357 1356 1354 1352 1350 1349 1348 1346
1457 1454 1451 1448 1444 1441 1435 1431 1427 1424 1419 1413 1409 1404 1399 1395 1391 1385 1379 1380 1375 1371 1368 1364 1362 1358 1355 1355 1353 1351 1351 1352 1352 1351 1349 1349 1349 1348 1346 1344 1343 1342 1341
Wind_Speed
19 15 16 11 6 9 9 14 17 15 14 14 14 13 13 13 13 14 14 13 15 16 17 18 20 21 22 22 22 21 20 19 19 22 25 25 26 24 24 24 32 35 32
18 15 10 9 11 14 15 14 13 12 12 15 15 16 16 15 14 14 14 16 16 17 17 18 18 18 19 20 21 20 19 17 15 17 20 14 19 15 12 15 20 23 21
11 11 12 13 11 14 15 12 11 13 14 15 15 16 17 17 16 15 15 15 15 16 17 17 16 17 17 17 18 16 14 14 13 12 12 9 6 18 18 20 22 23 22
9 10 9 9 10 10 13 16 16 15 15 15 15 16 18 19 17 18 17 16 15 15 16 15 14 13 12 10 9 7 8 11 15 13 13 15 17 15 16 19 22 22 22
10 13 12 12 11 12 13 13 13 13 14 15 16 16 18 19 19 18 18 17 15 16 15 14 13 10 9 8 6 3 7 10 15 16 20 20 19 19 20 24 24 26 24
13 15 16 16 18 20 19 16 14 13 15 17 18 17 18 19 19 19 18 17 15 16 15 14 13 11 10 8 6 6 9 11 14 16 18 19 21 22 22 23 28 28 31
15 16 16 17 19 20 24 24 23 23 22 23 22 19 18 19 20 20 19 18 17 16 15 16 14 12 11 11 8 8 11 13 15 16 17 17 19 20 21 22 26 29 33
18 17 18 18 19 19 20 24 25 26 25 25 25 21 18 19 19 19 19 19 17 16 15 15 15 12 12 11 11 12 13 13 14 16 18 18 19 18 19 21 23 27 29
19 21 20 20 21 20 19 21 20 23 25 26 24 21 20 20 19 18 18 18 18 17 16 17 16 14 12 12 13 14 14 15 18 20 19 18 18 19 19 20 20 22 26
21 22 19 20 24 24 21 17 17 21 22 22 22 20 20 20 19 19 18 18 18 18 17 16 16 16 13 12 14 16 16 17 18 17 20 21 19 21 20 20 21 23 25
24 22 21 19 23 25 24 20 16 16 17 18 19 21 21 20 20 19 18 18 18 18 18 18 18 16 15 13 14 15 15 16 18 19 20 21 22 25 25 25 25 24 25
24 21 19 20 25 31 28 24 20 17 17 18 19 20 19 19 20 20 19 19 19 18 18 18 18 18 17 17 17 16 16 17 20 21 21 21 22 25 26 28 30 32 30
27 21 23 24 27 34 31 27 22 19 19 19 20 20 19 20 20 20 20 20 20 20 19 19 19 19 18 19 19 19 20 21 20 22 24 25 25 24 23 23 25 26 25
26 25 26 29 37 34 27 25 24 21 20 21 21 21 19 20 20 20 20 20 21 21 20 20 20 20 19 19 19 20 20 20 23 24 23 23 21 20 20 21 23 23 23
23 25 36 35 33 33 27 25 24 23 22 22 23 21 20 21 21 21 20 21 21 21 21 21 20 20 20 19 20 21 20 21 22 21 21 20 16 15 18 20 23 25 26
28 36 35 34 34 32 29 26 24 24 23 22 22 22 21 21 21 22 21 22 22 22 22 21 21 20 19 19 20 21 21 20 20 22 21 18 17 15 17 19 20 20 23
33 34 32 30 29 28 25 23 22 22 21 20 20 23 23 21 20 21 22 22 23 22 22 22 21 21 20 19 20 20 20 21 20 20 21 19 18 17 20 20 20 20 21
30 24 23 25 25 23 20 21 21 20 20 19 19 20 21 21 21 22 22 23 23 24 23 22 21 22 20 20 20 20 20 19 19 20 21 20 19 18 19 22 21 19 18
23 19 19 20 20 20 20 20 20 20 21 21 21 22 21 23 23 24 25 24 25 24 24 24 23 23 21 20 20 20 20 20 18 19 19 20 20 19 20 21 23 22 20
16 18 19 20 20 20 20 22 22 24 22 22 22 22 23 24 23 23 24 25 25 25 25 24 23 23 23 20 20 20 20 20 19 18 18 20 19 18 20 20 21 22 21
14 16 18 19 19 20 20 23 25 25 24 25 25 24 23 23 24 25 25 24 25 25 25 25 24 23 22 22 21 20 20 19 19 19 18 18 20 20 19 19 19 19 20
17 17 19 19 18 19 22 24 25 24 26 26 27 27 26 25 26 26 27 26 27 28 28 27 26 24 22 23 23 21 21 20 20 17 17 18 18 19 18 19 20 20 20
17 18 20 20 19 22 24 28 28 28 30 30 31 32 30 28 25 26 28 29 28 29 30 30 30 27 23 22 23 23 22 21 22 20 19 19 19 19 20 19 19 18 18
17 19 21 22 24 26 27 28 27 27 29 30 30 31 34 34 33 31 28 28 29 31 31 31 32 30 28 25 25 24 23 22 23 22 22 21 20 20 20 19 18 18 18
19 20 22 24 26 29 29 28 28 28 30 32 32 33 34 36 37 35 34 32 29 29 30 31 31 31 30 26 25 25 25 24 23 23 24 22 20 20 18 18 19 20 19
19 22 26 27 30 29 29 28 28 29 31 32 33 33 34 36 36 36 38 33 33 32 31 30 30 32 31 28 27 26 27 26 23 24 25 23 21 20 18 18 18 18 19
Wind_Direction
346 340 351 358 202 225 282 295 294 292 301 303 306 305 310 315 314 310 307 305 302 303 299 297 295 294 291 288 282 279 279 278 280 287 288 283 273 274 276 275 264 261 265
28 31 19 353 326 308 305 302 298 306 305 304 308 310 316 319 320 317 314 312 310 306 304 306 307 306 299 289 282 277 273 276 289 299 304 313 309 295 290 276 270 272 276
10 358 343 331 346 341 332 330 323 309 305 308 311 310 314 317 321 321 316 311 308 309 315 316 313 311 304 301 289 288 261 280 284 291 293 309 296 303 286 288 287 288 284
357 351 320 303 312 320 321 319 320 314 310 308 313 316 315 319 326 325 321 318 314 314 320 317 313 312 318 318 305 291 247 268 279 279 273 277 287 305 305 300 294 294 295
332 327 309 314 322 330 326 318 318 317 319 316 316 314 311 316 322 321 318 315 314 317 318 315 311 308 315 325 309 263 257 264 275 279 280 279 279 277 289 303 298 289 285
321 305 300 310 315 319 324 320 315 317 320 318 317 312 310 314 318 319 316 315 316 318 317 313 314 316 319 315 277 261 267 273 275 285 276 283 290 290 291 292 293 295 294
346 339 334 320 310 308 309 310 309 305 312 315 309 309 312 312 316 318 317 319 320 318 320 316 310 308 308 302 293 278 259 268 276 289 284 284 285 286 285 289 290 294 295
353 355 346 322 307 303 303 303 307 309 310 311 310 304 305 307 310 313 316 318 318 315 315 315 312 299 296 294 289 281 278 278 278 278 285 284 289 293 290 290 293 298 299
347 348 347 352 348 336 312 297 298 298 302 307 308 298 299 305 305 310 313 314 315 315 317 318 318 309 299 300 300 296 289 278 271 274 279 282 294 293 295 291 288 290 294
348 346 343 349 355 351 339 321 308 300 298 296 302 300 300 304 304 308 311 311 313 314 315 315 314 313 310 295 291 292 295 295 292 286 277 272 279 285 291 289 286 283 284
345 340 341 341 350 352 348 336 327 318 316 311 305 302 304 302 301 305 309 310 311 314 313 312 314 313 307 298 291 291 294 290 292 290 287 283 277 274 276 276 280 281 281
339 337 337 337 341 347 342 341 326 322 324 321 313 307 304 304 303 305 307 308 310 309 309 307 307 307 309 310 307 302 297 292 289 290 285 284 282 275 275 276 273 268 271
334 335 336 335 334 332 334 332 332 318 316 318 318 314 309 307 308 307 306 308 309 309 308 306 305 305 305 303 303 302 305 302 304 309 303 295 287 284 286 285 287 281 280
336 340 339 330 325 330 334 330 330 330 327 317 315 313 314 309 310 307 305 305 305 307 307 307 307 307 304 303 302 302 301 298 301 304 303 301 298 306 301 298 291 287 282
337 335 333 332 330 329 329 328 327 323 323 318 320 318 312 310 310 309 306 303 303 305 305 306 307 307 305 305 304 305 304 304 303 304 304 303 305 304 300 297 298 285 279
336 335 334 332 331 331 328 328 320 318 318 315 317 321 316 310 310 309 306 303 303 304 302 304 304 305 304 305 305 305 307 305 306 308 308 306 302 295 293 295 290 283 269
337 335 335 336 336 339 338 336 337 332 327 323 323 323 319 313 311 309 305 306 303 299 300 302 302 303 303 303 301 302 304 305 307 308 308 306 300 296 295 294 295 291 276
327 332 337 343 347 346 344 343 346 347 348 345 336 329 323 320 319 315 313 311 306 299 297 298 297 297 300 299 299 303 305 305 307 309 307 304 301 296 296 298 302 301 292
324 329 335 343 350 355 358 359 359 353 343 337 335 333 327 321 319 318 316 315 307 300 297 296 298 300 303 302 300 300 300 302 305 306 304 304 301 298 288 293 299 300 298
315 325 334 339 342 347 348 351 352 351 348 347 343 335 327 322 317 312 312 312 309 304 298 293 292 293 294 293 291 291 293 296 301 303 305 303 300 299 295 299 300 303 302
309 319 327 336 342 346 348 352 353 352 343 338 336 335 332 326 320 315 313 308 307 301 297 295 294 290 291 292 290 290 290 293 296 302 306 307 307 305 301 300 299 300 303
311 326 333 339 347 350 348 346 346 346 342 337 335 333 330 326 323 319 315 311 308 304 300 295 293 290 287 286 285 284 285 286 290 298 299 303 305 305 304 299 298 298 300
309 321 330 332 336 344 344 342 344 341 337 334 333 333 333 331 326 320 316 314 308 302 301 298 294 292 290 282 279 279 278 279 288 293 295 297 299 302 302 297 293 292 299
311 320 325 327 333 339 340 342 340 335 331 329 331 332 332 331 330 329 324 317 311 306 302 298 296 295 289 283 280 277 275 278 282 289 292 294 295 295 296 294 292 290 293
307 315 321 324 325 328 330 334 337 336 332 330 332 332 332 331 328 325 323 320 315 310 304 299 297 295 290 289 282 273 268 271 276 277 280 284 287 287 287 287 289 290 289
305 311 315 320 323 323 323 329 330 328 327 328 329 330 329 329 328 326 321 316 314 310 307 302 295 294 292 293 290 281 269 268 270 269 274 279 281 282 284 283 285 285 288